Weather in Kortkeros

Russia / Komi Republic     61°49′02″N   51°33′53″E
temp.,
°C
wind,
m/s
gust,
m/s
humid.,
%
clouds,
%
prec.,
mm/h
press.,
hPa
HPBL,
m
18 may, tue
tue1800:00+12nne368566 0.1 1019498
03:00+9nne22940 0.1 102138
06:00+12ne34690 0.0 1022534
09:00+17ne22475 0.0 10221059
12:00+21ene223519 0.0 10221405
15:00+22e223134 0.0 10221532
18:00+21se233846 0.0 1021204
21:00+14se235669 0.0 102251
19 may, wed
wed1900:00+12sse276659 0.0 1022118
03:00+12sse287699 0.0 1022152
06:00+16s376068 0.0 1022293
09:00+22ssw454659 0.0 10211131
12:00+25ssw45347 0.0 10201630
15:00+26ssw45291 0.0 10191890
18:00+24ssw36375 0.0 1018509
21:00+17ssw386240 0.0 1019133
20 may, thu
thu2000:00+15ssw28697 0.0 1019132
03:00+13ssw267465 0.0 1019107
06:00+18ssw365898 0.0 1020249
09:00+23ssw344278 0.0 1019746
12:00+26ssw452728 0.0 10171855
15:00+27ssw34230 0.0 10161961
18:00+25s25330 0.0 1015259
21:00+18s38521 0.0 1015126
21 may, fri
fri2100:00+15s28610 0.0 1015129
03:00+14sse23690 0.0 101551
06:00+19s37530 0.0 1014329
09:00+24s58355 0.0 10131900
12:00+26s58257 0.0 10122515
15:00+27s5102582 0.0 10093047
18:00+22s51341100 0.0 10081389
21:00+17ssw4117244 0.4 1009992
22 may, sat
sat2200:00+15ssw3108354 0.0 1009584
03:00+14ssw389392 0.8 1009588
06:00+15sw4887100 0.2 1010674
09:00+16w586796 1.9 10121234
12:00+20w5830100 0.0 10132117
15:00+21wsw6929100 0.0 10132857
18:00+18sw4939100 0.0 10131223
21:00+15sw4115230 0.0 1015440